Location: Kumla
(59.1265°N, 15.1401°E)
Time: 17:30:34
(UTC+01:00)

Vanguard 2 Rocket - Pass Details

Date: 06 December 2023
Orbit: 554 x 3309 km, 32.9° (Epoch: 26 February)

Event Time Altitude Azimuth Distance (km) Brightness Sun altitude
Rises 17:41:29 0° 253° (WSW) 7,057 13.2 -18.1°
Reaches altitude 10° 17:47:18 10° 243° (WSW) 6,205 12.3 -18.8°
Maximum altitude 18:01:38 26° 197° (SSW) 4,922 10.8 -20.6°
Drops below altitude 10° 18:14:30 10° 151° (SSE) 5,532 10.7 -22.2°
Sets 18:19:17 0° 139° (SE) 6,181 10.8 -22.8°
